Regional Weather Roundup
Issued by NWS

Home | Current Version | Previous Version | Text Only | Print | Product List | Glossary On
Versions: 1 2 3 4 5 6 7 8 9 10 11 12 13 14 15 16 17 18 19 20 21 22 23 24 25 26 27 28 29 30 31 32 33 34 35 36 37 38 39 40 41 42 43 44 45 46 47 48 49 50
451
ASUS44 KLIX 281513
RWRLA
LOUISIANA WEATHER ROUNDUP
NATIONAL WEATHER SERVICE NEW ORLEANS LA
900 AM CST TUE FEB 28 2017

NOTE: "FAIR" INDICATES FEW OR NO CLOUDS BELOW 12,000 FEET WITH NO
      SIGNIFICANT WEATHER AND/OR OBSTRUCTIONS TO VISIBILITY.
      SKY/WX - SKY CONDITION AND SIGNIFICANT WEATHER.
      TMP - AIR TEMPERATURE.    DP   - DEWPOINT TEMPERATURE.
      RH  - RELATIVE HUMIDITY.  PRES - PRESSURE.
      HX  - HEAT INDEX.         WCI  - WIND CHILL INDEX.

*  THESE STATIONS ARE NOT NWS OR FAA STATIONS AND ARE NOT UNDER
   NWS QUALITY CONTROL.

LAZ040-048-061>063-065-066-069-281600-
SOUTHEAST LOUISIANA

CITY           SKY/WX    TMP DP  RH WIND       PRES   REMARKS
N.O. INTL ARPT CLOUDY    74  70  87 S13G21    30.14S
N.O. LAKEFRONT CLOUDY    75  70  84 S14       30.15S
N.O. DOWNTOWN*   N/A     75  70  84 S12G17    30.16R
RESERVE*       CLOUDY    77  72  85 S10       30.14S
SLIDELL        CLOUDY    72  70  93 S13       30.16R
BATON ROUGE    PTSUNNY   76  68  76 S13       30.12R
BOOTHVILLE     CLOUDY    73  72  96 S9        30.18R
BELLE CHASSE   PTSUNNY   75  71  87 S14       30.15S
BOGALUSA*      CLOUDY    74  68  79 S10       30.17R
GALLIANO*      CLOUDY    75  69  84 S12       30.15S
NEW ROADS*     PTSUNNY   73  67  82 S12       30.12R
GONZALES*      CLOUDY    74  69  82 S9        30.13R
HAMMOND*       CLOUDY    73  68  83 S12       30.15R
HOUMA*         CLOUDY    73  72  94 SE9       30.14R FOG
PORT FOURCHON* MOSUNNY   73  70  88 SE10      30.14S FOG

$$

LAZ041-044-053-054-281600-
SOUTHWEST LOUISIANA

CITY           SKY/WX    TMP DP  RH WIND       PRES   REMARKS
LAKE CHARLES   CLOUDY    74  68  81 S12G18    30.07R
LAFAYETTE      PTSUNNY   76  69  79 S10G20    30.10S
PATTERSON      PTSUNNY   75  69  81 S14G20    30.12S
SALT POINT       N/A     70  68  93 VRB7      30.11R
NEW IBERIA     PTSUNNY   75  68  78 S15       30.11S
CHENAULT AIRPK PTSUNNY   72  68  88 S12G17    30.07S

$$

LAZ027-028-281600-
CENTRAL LOUISIANA

CITY           SKY/WX    TMP DP  RH WIND       PRES   REMARKS
FORT POLK      CLOUDY    73  67  82 S15G24    30.06R
ALEXANDRIA INT PTSUNNY   73  66  78 S14       30.05S
ALEXANDRIA     PTSUNNY   74  67  78 SW14      30.07S

$$

LAZ001-002-281600-
NORTHWEST LOUISIANA

CITY           SKY/WX    TMP DP  RH WIND       PRES   REMARKS
SHREVEPORT     CLOUDY    74  70  87 S12G22    29.98S FOG
BARKSDALE AFB  CLOUDY    71  71 100 S14       29.99S FOG
DTN SHREVEPORT CLOUDY    73  69  87 S10       29.99S FOG

$$

LAZ014-016-281600-
NORTHEAST LOUISIANA

CITY           SKY/WX    TMP DP  RH WIND       PRES   REMARKS
MONROE         CLOUDY    72  67  84 S12       30.04S
TALLULAH       PTSUNNY   72  65  78 S12G21    30.06F

$$





USA.gov is the U.S. government's official web portal to all federal, state and local government web resources and services.